Tracking 25707 objects as of 30-Jun-2022
HD Live streaming from Space Station
objects crossing your sky now

USA 7

Track USA 7 now!
USA 7 is classified as:


NORAD ID: 15453
Int'l Code: 1984-129A
Perigee: 36,177.4 km
Apogee: 36,211.6 km
Inclination: 13.8 °
Period: 1,456.6 minutes
Semi major axis: 42565 km
RCS: Unknown
Launch date: December 22, 1984
Source: United States (US)
Launch site: AIR FORCE EASTERN TEST RANGE (AFETR)
aabbcc
Your satellite tracking list
Your tracking list is empty




NASA's NSSDC Master Catalog

Two Line Element Set (TLE):
1 15453U 84129A   22180.60604918 -.00000141  00000-0  00000-0 0  9996
2 15453  13.8229 332.5202 0004011 133.6238 217.3506  0.98859045 11727
Source of the keplerian elements: McCants